Weather reports worldwide

Advertisment
Sennybridge, United Kingdom (3507): temperature & dewpoint: 06.11.2019 05:00:00 - 12.11.2019 05:00:00 (GMT)Sennybridge, United Kingdom (3507): temperature -20cm & temperature -100cm: 06.11.2019 05:00:00 - 12.11.2019 05:00:00 (GMT)Sennybridge, United Kingdom (3507): wind speed & gusts: 06.11.2019 05:00:00 - 12.11.2019 05:00:00 (GMT)Sennybridge, United Kingdom (3507): wind direction: 06.11.2019 05:00:00 - 12.11.2019 05:00:00 (GMT)Sennybridge, United Kingdom (3507): reduced air pressure: 06.11.2019 05:00:00 - 12.11.2019 05:00:00 (GMT)Sennybridge, United Kingdom (3507): visibility: 06.11.2019 05:00:00 - 12.11.2019 05:00:00 (GMT)Sennybridge, United Kingdom (3507): precipitation: 06.11.2019 05:00:00 - 12.11.2019 05:00:00 (GMT)
Date & Time tt [°C] td [°C] tt -20cm [°C] tt -100cm [°C] ff [km/h] ff [kn] fx [km/h] fx [kn] dd ppp [hPa] vv [km] rr [mm]
12.11.2019 05:00:00 3,2 1,3 - - 5 3 - - WNW 1001,0 22 0,0
12.11.2019 04:00:00 2,7 1,6 - - 8 4 - - W 1001,0 12 0,2
12.11.2019 03:00:00 2,3 1,3 - - 8 4 - - W 1001,4 9 0,6
12.11.2019 02:00:00 2,6 1,3 - - 8 4 - - W 1001,7 24 0,0
12.11.2019 01:00:00 2,8 1,7 - - 8 4 - - W 1002,0 21 0,2
12.11.2019 00:00:00 2,6 1,7 - - 8 4 - - W 1002,2 19 0,4
11.11.2019 23:00:00 2,8 1,8 - - 9 5 - - W 1002,5 4,6 1,4
11.11.2019 22:00:00 2,8 2,2 - - 5 3 - - W 1002,8 10 2,0
11.11.2019 21:00:00 2,6 1,3 - - 11 6 - - NW 1003,3 8 1,4
11.11.2019 20:00:00 2,9 2,0 - - 13 7 - - W 1003,0 22 0,8
11.11.2019 19:00:00 3,4 2,5 - - 16 9 - - W 1003,1 14 0,0
11.11.2019 18:00:00 3,4 2,3 - - 11 6 - - W 1002,9 17 0,8
11.11.2019 17:00:00 3,7 2,7 - - 9 5 - - W 1003,0 10 0,4
11.11.2019 16:00:00 3,6 2,2 - - 16 9 - - WSW 1003,1 16 0,2
11.11.2019 15:00:00 4,8 2,7 - - 9 5 48 26 W 1003,2 12 0,0
11.11.2019 14:00:00 5,7 3,3 - - 8 4 - - W 1003,2 13 0,2
11.11.2019 13:00:00 6,1 3,1 - - 8 4 - - W 1003,3 19 0,0
11.11.2019 12:00:00 5,1 3,4 - - 8 4 - - W 1004,0 17 0,2
11.11.2019 11:00:00 5,3 3,5 - - 5 3 - - WNW 1004,0 14 0,0
11.11.2019 10:00:00 5,0 3,0 - - 8 4 - - WNW 1004,1 20 0,0
11.11.2019 09:00:00 4,2 2,9 7,7 9,9 5 3 - - WNW 1004,2 12 0,8
11.11.2019 08:00:00 3,5 2,1 - - 8 4 - - WNW 1004,0 4,8 0,8
11.11.2019 07:00:00 4,2 3,1 - - 8 4 - - WNW 1002,8 11 0,6
11.11.2019 06:00:00 4,2 3,1 - - 9 5 - - WNW 1002,9 5 0,6
11.11.2019 05:00:00 4,3 3,8 - - 8 4 - - WNW 1002,4 13 0,4
11.11.2019 04:00:00 2,8 2,3 - - 9 5 - - W 1002,5 18 1,0
11.11.2019 03:00:00 2,0 1,2 - - 4 2 - - E 1002,3 10 3,8
11.11.2019 02:00:00 5,9 5,1 - - 35 19 50 27 SSW 1001,0 3,6 1,8
11.11.2019 01:00:00 5,9 5,2 - - 31 17 50 27 SSW 1003,0 10 1,8
11.11.2019 00:00:00 5,7 5,1 - - 34 18 50 27 SSW 1005,2 12 0,4
10.11.2019 23:00:00 5,1 4,4 - - 18 10 - - S 1006,7 13 0,8
10.11.2019 22:00:00 4,5 3,8 - - 13 7 - - S 1009,4 7 1,8
10.11.2019 21:00:00 4,6 3,4 - - 15 8 - - S 1011,1 7 0,8
10.11.2019 20:00:00 4,1 2,8 - - 13 7 - - SSW 1012,2 28 0,0
10.11.2019 19:00:00 3,1 1,7 - - 8 4 - - S 1012,7 50 0,0
10.11.2019 18:00:00 3,9 1,7 - - 15 8 - - SSE 1011,2 50 0,0
10.11.2019 17:00:00 4,0 2,0 - - 16 9 - - SE 1013,7 50 0,0
10.11.2019 16:00:00 4,4 1,8 - - 2 1 - - S 1014,4 50 0,0
10.11.2019 15:00:00 5,6 2,3 - - 9 5 - - SSE 1015,2 45 0,0
10.11.2019 14:00:00 6,9 2,6 - - 9 5 - - SE 1015,4 45 0,0
10.11.2019 13:00:00 5,5 1,6 - - 4 2 - - N 1015,8 27 0,0
10.11.2019 12:00:00 4,6 1,8 - - 5 3 - - NNE 1016,0 24 0,0
10.11.2019 11:00:00 3,2 0,3 - - 13 7 - - NNE 1016,4 35 0,0
10.11.2019 10:00:00 2,6 -0,1 - - 11 6 - - NE 1016,4 28 0,0
10.11.2019 09:00:00 1,6 -0,2 8,0 10,0 5 3 - - N 1016,3 35 0,0
10.11.2019 08:00:00 1,1 -0,3 - - 11 6 - - ENE 1015,1 50 0,0
10.11.2019 07:00:00 0,8 0,2 - - 5 3 - - NNE 1014,3 45 0,0
10.11.2019 06:00:00 1,4 0,7 - - 16 9 - - NNE 1012,5 50 0,0
10.11.2019 05:00:00 1,7 1,2 - - 18 10 - - NNE 1011,8 40 0,4
10.11.2019 04:00:00 1,5 1,2 - - 21 11 - - NNE 1010,5 9 0,8
10.11.2019 03:00:00 0,9 0,7 - - 18 10 - - NNE 1009,4 7 0,8
10.11.2019 02:00:00 0,7 0,4 - - 18 10 - - NNE 1008,3 6 0,8
10.11.2019 01:00:00 1,7 1,4 - - 16 9 - - NE 1007,2 6 0,0
10.11.2019 00:00:00 2,2 2,1 - - 15 8 - - NNE 1006,0 3,9 0,0
09.11.2019 23:00:00 2,5 2,4 - - 15 8 - - NE 1004,9 3,3 0,0
09.11.2019 22:00:00 2,9 2,7 - - 11 6 - - NE 1003,9 6 0,0
09.11.2019 21:00:00 2,9 2,8 - - 13 7 - - E 1003,0 12 0,0
09.11.2019 20:00:00 2,8 2,7 - - 4 2 - - N 1002,5 3,1 1,0
09.11.2019 19:00:00 2,8 2,7 - - 2 1 - - NNW 1002,7 0,4 1,4
09.11.2019 18:00:00 3,0 2,9 - - 2 1 - - NNW 1002,3 0,2 0,4
09.11.2019 17:00:00 3,2 3,0 - - 0 0 - - N 1001,9 0,7 0,2
09.11.2019 16:00:00 3,1 2,8 - - 2 1 - - NNE 1001,7 2,1 0,0
09.11.2019 15:00:00 4,6 4,5 - - 2 1 - - E 1001,0 12 0,0
09.11.2019 14:00:00 3,7 3,4 - - 4 2 - - N 1001,6 3,1 0,2
09.11.2019 13:00:00 3,8 3,2 - - 5 3 - - NNE 1001,4 6 0,2
09.11.2019 12:00:00 4,3 3,3 - - 15 8 - - SE 1001,6 45 0,0
09.11.2019 11:00:00 3,5 2,8 - - 28 15 - - SSE 1002,2 19 1,2
09.11.2019 10:00:00 1,2 0,9 - - 8 4 - - E 1004,1 3,4 2,8
09.11.2019 09:00:00 2,2 1,2 8,5 10,0 15 8 - - SSE 1004,0 35 1,6
09.11.2019 08:00:00 1,4 -0,6 - - 15 8 - - SSE 1005,4 45 0,0
09.11.2019 07:00:00 1,4 -0,7 - - 28 15 - - SSE 1006,6 50 0,0
09.11.2019 06:00:00 0,6 -0,3 - - 13 7 - - SE 1008,0 50 0,0
09.11.2019 05:00:00 -3,6 -3,9 - - 8 4 - - N 1009,7 30 0,0
09.11.2019 04:00:00 -3,1 -3,5 - - 4 2 - - WNW 1011,0 50 0,0
09.11.2019 03:00:00 -3,2 -4,6 - - 4 2 - - N 1012,1 50 0,0
09.11.2019 02:00:00 -1,6 -2,2 - - 5 3 - - S 1012,7 50 0,0
09.11.2019 01:00:00 -3,9 -4,8 - - 0 0 - - N 1014,2 40 0,0
09.11.2019 00:00:00 -3,9 -5,5 - - 2 1 - - S 1014,7 50 0,0
08.11.2019 23:00:00 -2,3 -3,8 - - 8 4 - - ESE 1014,4 50 0,0
08.11.2019 22:00:00 -2,8 -4,4 - - 2 1 - - S 1014,5 50 0,0
08.11.2019 21:00:00 -1,5 -3,0 - - 5 3 - - NE 1014,8 50 0,0
08.11.2019 20:00:00 -0,4 -2,4 - - 5 3 - - NE 1014,4 50 0,0
08.11.2019 19:00:00 -1,1 -2,1 - - 5 3 - - E 1014,6 50 0,0
08.11.2019 18:00:00 -0,1 -1,8 - - 0 0 - - N 1014,6 50 0,0
08.11.2019 17:00:00 0,6 -1,5 - - 0 0 - - N 1013,9 50 0,0
08.11.2019 16:00:00 6,1 -0,3 - - 4 2 - - NNW 1012,4 50 0,0
08.11.2019 15:00:00 7,1 0,1 - - 5 3 - - N 1011,6 40 0,0
08.11.2019 14:00:00 8,0 2,1 - - 8 4 - - NNW 1010,8 35 0,0
08.11.2019 13:00:00 6,7 2,0 - - 9 5 - - NNE 1010,8 30 0,0
08.11.2019 12:00:00 6,4 2,4 - - 13 7 - - NNE 1010,8 30 0,0
08.11.2019 11:00:00 5,7 1,7 - - 13 7 - - NNE 1010,8 30 0,0
08.11.2019 10:00:00 4,9 1,7 - - 18 10 - - NNE 1010,5 45 0,0
08.11.2019 09:00:00 4,4 2,1 9,0 10,2 11 6 - - NNE 1009,7 30 0,0
08.11.2019 08:00:00 4,1 1,9 - - 21 11 - - NNE 1008,2 35 0,0
08.11.2019 07:00:00 4,4 2,3 - - 21 11 - - NNE 1006,9 40 0,0
08.11.2019 06:00:00 4,5 2,5 - - 16 9 - - NNE 1006,1 45 0,0
08.11.2019 05:00:00 4,2 3,0 - - 13 7 - - NNE 1004,7 40 0,0
08.11.2019 04:00:00 4,1 3,1 - - 13 7 48 26 NNE 1003,6 29 0,2
08.11.2019 03:00:00 4,2 2,9 - - 24 13 - - NNE 1002,3 28 0,0
08.11.2019 02:00:00 4,6 4,1 - - 16 9 - - NNE 1001,4 24 0,2
08.11.2019 01:00:00 3,4 3,1 - - 2 1 - - N 1000,8 3,4 0,6
08.11.2019 00:00:00 3,2 2,9 - - 4 2 - - NNE 1000,2 11 0,2
07.11.2019 23:00:00 3,0 2,7 - - 9 5 - - N 999,2 10 0,2
07.11.2019 22:00:00 3,2 3,1 - - 8 4 - - NNE 998,5 11 0,2
07.11.2019 21:00:00 3,3 3,1 - - 4 2 - - NNE 997,8 9 0,6
07.11.2019 20:00:00 2,1 1,9 - - 2 1 - - SSE 996,9 50 0,0
07.11.2019 19:00:00 1,5 0,9 - - 2 1 - - SSW 996,3 35 0,0
07.11.2019 18:00:00 3,4 2,6 - - 5 3 - - S 995,1 50 0,0
07.11.2019 17:00:00 2,3 1,4 - - 5 3 - - S 994,6 50 0,0
07.11.2019 16:00:00 4,4 3,2 - - 5 3 - - SSW 993,7 50 0,0
07.11.2019 15:00:00 5,9 3,6 - - 8 4 - - W 993,0 50 0,0
07.11.2019 14:00:00 7,2 4,7 - - 11 6 - - WSW 992,4 35 0,0
07.11.2019 13:00:00 6,8 3,1 - - 13 7 - - SW 992,2 40 0,0
07.11.2019 12:00:00 6,4 3,9 - - 5 3 - - W 992,2 30 0,0
07.11.2019 11:00:00 5,9 4,5 - - 11 6 - - SW 992,1 50 0,0
07.11.2019 10:00:00 5,1 4,3 - - 9 5 - - SW 991,9 29 0,0
07.11.2019 09:00:00 3,9 3,8 9,4 10,4 9 5 - - SW 991,9 18 0,0
07.11.2019 08:00:00 1,8 1,4 - - 8 4 - - SSW 992,0 17 0,0
07.11.2019 07:00:00 3,9 3,6 - - 13 7 - - WSW 991,4 20 0,4
07.11.2019 06:00:00 3,9 3,3 - - 9 5 - - W 991,4 50 0,2
07.11.2019 05:00:00 4,6 4,2 - - 13 7 - - WSW 991,4 9 0,2
07.11.2019 04:00:00 4,7 4,2 - - 9 5 - - WSW 991,6 45 0,2
07.11.2019 03:00:00 4,8 4,4 - - 5 3 - - W 991,7 50 0,2
07.11.2019 02:00:00 4,9 4,5 - - 8 4 - - W 992,1 8 0,2
07.11.2019 01:00:00 5,3 4,7 - - 4 2 - - NW 992,2 45 0,6
07.11.2019 00:00:00 6,1 5,6 - - 13 7 - - SSW 991,9 11 1,6
06.11.2019 23:00:00 6,7 6,1 - - 16 9 - - SSE 992,2 35 0,4
06.11.2019 22:00:00 6,4 5,9 - - 15 8 - - SE 993,4 7 0,4
06.11.2019 21:00:00 6,2 5,5 - - 13 7 - - SE 994,6 24 0,8
06.11.2019 20:00:00 6,1 5,4 - - 13 7 - - SSE 995,8 10 0,6
06.11.2019 19:00:00 6,0 5,4 - - 13 7 - - SE 996,6 35 0,2
06.11.2019 18:00:00 6,1 5,4 - - 15 8 - - SSE 997,8 35 0,0
06.11.2019 17:00:00 5,8 4,9 - - 9 5 - - SSE 998,9 40 0,0
06.11.2019 16:00:00 5,9 4,6 - - 4 2 - - S 999,9 50 0,0
06.11.2019 15:00:00 6,6 4,8 - - 5 3 - - WSW 1000,7 50 0,0
06.11.2019 14:00:00 6,8 5,2 - - 13 7 - - SW 1001,6 50 0,0
06.11.2019 13:00:00 6,4 4,9 - - 8 4 - - S 1002,4 50 0,2
06.11.2019 12:00:00 5,5 4,7 - - 11 6 - - SSW 1003,4 14 1,6
06.11.2019 11:00:00 5,4 4,3 - - 9 5 - - S 1004,4 20 0,0
06.11.2019 10:00:00 5,1 3,5 - - 13 7 - - SSE 1005,0 15 0,0
06.11.2019 09:00:00 5,1 3,5 9,7 10,5 8 4 - - SW 1005,5 45 0,0
06.11.2019 08:00:00 3,9 2,5 - - 5 3 - - S 1006,2 50 0,0
06.11.2019 07:00:00 2,9 2,0 - - 5 3 - - WSW 1006,7 30 0,2
06.11.2019 06:00:00 3,6 2,5 - - 8 4 - - S 1006,8 50 0,0
06.11.2019 05:00:00 2,3 1,8 - - 5 3 - - S 1007,4 50 0,0

tt = temperature
td = dewpoint
tt -20cm = temperature -20cm
tt -100cm = temperature -100cm
ff = wind speed
fx = gusts
dd = wind direction
ppp = reduced air pressure
vv = visibility
rr = precipitation

Next stations